Edinburg, TX

4:15 AM CDT on May 30, 2017 (GMT -0500)
Edinburg

Weather History for KEBG - June, 2013

Change the Weather History Date:

Sunday, June 9, 2013

  Actual Average (KMFE) Record (KMFE)
Temperature  
Mean Temperature 88 °F -  
Max Temperature 98 °F 94 °F 103 °F (1988)
Min Temperature 79 °F 74 °F 68 °F (1993)
Cooling Degree Days 24    
Growing Degree Days 38 (Base 50)    
Moisture  
Dew Point 70 °F    
Average Humidity 60    
Maximum Humidity 89    
Minimum Humidity 31    
Precipitation  
Precipitation 0.00 in - - ()
Sea Level Pressure  
Sea Level Pressure 29.83 in    
Wind  
Wind Speed 7 mph (SE)    
Max Wind Speed 18 mph    
Max Gust Speed 24 mph    
Visibility 8 miles    
Events      
Averages and records for this station are not official NWS values.
T = Trace of Precipitation, MM = Missing Value Source: NWS Daily Summary

Daily Weather History Graph

Daily Weather History Graph

Search for Another Location

Airport or City:

Trip Planner

Search our weather history database for the weather conditions in past years. The results will help you decide how hot, cold, wet, or windy it might be!

Date:

Astronomy

Jun. 09, 2013 Rise Set
Actual Time 6:39 AM CDT 8:24 PM CDT
Civil Twilight 6:12 AM CDT 8:50 PM CDT
Nautical Twilight 5:41 AM CDT 9:22 PM CDT
Astronomical Twilight 5:08 AM CDT 9:55 PM CDT
Moon 7:31 AM CDT (6/9) 9:19 PM CDT (6/9)
Length of Visible Light 14h 38m
Length of Day
13h 45m
New Moon, 1% of the Moon is Illuminated
Jun 9
New Moon
Jun 16
First Quarter
Jun 23
Full
Jun 29
Last Quarter
Jul 8
New

Hourly Weather History & Observations

Time (CDT) Temp. Heat Index Dew Point Humidity Pressure Visibility Wind Dir Wind Speed Gust Speed Precip Events Conditions
12:15 AM 80.6 °F 86.2 °F 75.2 °F 84% 29.86 in 7.0 mi ESE 4.6 mph - N/A   Scattered Clouds
12:35 AM 80.1 °F 85.1 °F 75.2 °F 85% 29.87 in 7.0 mi Calm Calm - N/A   Scattered Clouds
12:55 AM 79.7 °F - 74.7 °F 84% 29.87 in 7.0 mi Calm Calm - N/A   Clear
1:15 AM 80.6 °F 86.2 °F 75.4 °F 84% 29.87 in 10.0 mi NE 3.5 mph - N/A   Scattered Clouds
1:35 AM 80.6 °F 86.4 °F 75.6 °F 85% 29.87 in 7.0 mi Calm Calm - N/A   Mostly Cloudy
1:55 AM 80.2 °F 85.5 °F 75.4 °F 85% 29.87 in 7.0 mi NE 3.5 mph - N/A   Scattered Clouds
2:15 AM 80.1 °F 85.2 °F 75.4 °F 86% 29.86 in 7.0 mi East 3.5 mph - N/A   Scattered Clouds
2:35 AM 79.7 °F - 75.2 °F 86% 29.85 in 7.0 mi Calm Calm - N/A   Mostly Cloudy
2:55 AM 79.2 °F - 75.2 °F 88% 29.85 in 7.0 mi South 4.6 mph - N/A   Scattered Clouds
3:15 AM 79.7 °F - 75.4 °F 87% 29.84 in 7.0 mi SSE 4.6 mph - N/A   Scattered Clouds
3:35 AM 80.1 °F 85.5 °F 76.1 °F 88% 29.83 in 10.0 mi SSE 5.8 mph - N/A   Scattered Clouds
3:55 AM 79.7 °F - 75.6 °F 87% 29.82 in 7.0 mi SE 5.8 mph - N/A   Scattered Clouds
4:15 AM 79.3 °F - 75.4 °F 88% 29.82 in 7.0 mi SE 3.5 mph - N/A   Clear
4:35 AM 79.3 °F - 75.6 °F 88% 29.82 in 7.0 mi ESE 5.8 mph - N/A   Clear
4:55 AM 79.5 °F - 75.7 °F 88% 29.82 in 7.0 mi ESE 5.8 mph - N/A   Clear
5:15 AM 79.7 °F - 75.9 °F 88% 29.81 in 7.0 mi ESE 8.1 mph - N/A   Clear
5:35 AM 79.7 °F - 76.1 °F 89% 29.82 in 7.0 mi ESE 8.1 mph - N/A   Scattered Clouds
5:55 AM 79.7 °F - 76.1 °F 89% 29.81 in 7.0 mi ESE 8.1 mph - N/A   Scattered Clouds
6:15 AM 79.7 °F - 76.1 °F 89% 29.82 in 7.0 mi SE 4.6 mph - N/A   Scattered Clouds
6:35 AM 79.2 °F - 75.6 °F 89% 29.82 in 7.0 mi SSE 5.8 mph - N/A   Scattered Clouds
6:55 AM 79.3 °F - 75.7 °F 89% 29.82 in 7.0 mi SE 4.6 mph - N/A   Scattered Clouds
7:15 AM 79.0 °F - 75.2 °F 88% 29.82 in 7.0 mi SE 5.8 mph - N/A   Clear
7:35 AM 79.7 °F - 74.3 °F 83% 29.82 in 5.0 mi SE 4.6 mph - N/A   Haze
7:55 AM 80.6 °F 85.0 °F 72.9 °F 77% 29.83 in 7.0 mi SSE 6.9 mph - N/A   Clear
8:15 AM 81.5 °F 85.5 °F 70.9 °F 70% 29.84 in 7.0 mi SSE 8.1 mph - N/A   Clear
8:35 AM 82.0 °F 86.1 °F 70.3 °F 68% 29.83 in 7.0 mi South 6.9 mph - N/A   Clear
8:55 AM 82.9 °F 86.5 °F 69.1 °F 63% 29.85 in 7.0 mi South 8.1 mph - N/A   Clear
9:15 AM 83.7 °F 87.2 °F 68.9 °F 61% 29.85 in 7.0 mi South 8.1 mph - N/A   Clear
9:35 AM 84.9 °F 88.2 °F 68.4 °F 57% 29.85 in 7.0 mi South 6.9 mph - N/A   Clear
9:55 AM 86.7 °F 90.3 °F 68.2 °F 54% 29.86 in 7.0 mi South 9.2 mph - N/A   Clear
10:15 AM 87.4 °F 89.8 °F 66.4 °F 49% 29.86 in 10.0 mi SE 10.4 mph 17.3 mph N/A   Clear
10:35 AM 87.8 °F 90.7 °F 66.9 °F 50% 29.86 in 7.0 mi SSE 13.8 mph 18.4 mph N/A   Clear
10:55 AM 88.9 °F 92.2 °F 67.5 °F 49% 29.87 in 5.0 mi ESE 10.4 mph - N/A   Haze
11:15 AM 89.4 °F 91.9 °F 66.0 °F 46% 29.86 in 7.0 mi SE 11.5 mph - N/A   Clear
11:35 AM 90.7 °F 92.1 °F 64.0 °F 41% 29.86 in 7.0 mi SSE 12.7 mph - N/A   Clear
11:55 AM 91.8 °F 92.6 °F 63.0 °F 38% 29.85 in 7.0 mi SE 10.4 mph - N/A   Clear
12:15 PM 91.9 °F 92.5 °F 62.1 °F 37% 29.84 in 7.0 mi SSE 6.9 mph 18.4 mph N/A   Clear
12:35 PM 93.0 °F 93.0 °F 60.6 °F 34% 29.84 in 7.0 mi SSE 12.7 mph 17.3 mph N/A   Clear
12:55 PM 93.9 °F 94.0 °F 60.8 °F 33% 29.83 in 7.0 mi SSE 12.7 mph - N/A   Clear
1:15 PM 94.5 °F 95.2 °F 61.9 °F 34% 29.83 in 10.0 mi SE 10.4 mph - N/A   Clear
1:35 PM 94.6 °F 95.1 °F 61.2 °F 33% 29.82 in 10.0 mi SSE 9.2 mph - N/A   Clear
1:55 PM 96.4 °F 97.0 °F 60.8 °F 31% 29.82 in 7.0 mi South 10.4 mph - N/A   Clear
2:15 PM 96.3 °F 97.6 °F 62.4 °F 33% 29.81 in 5.0 mi SE 10.4 mph 16.1 mph N/A   Haze
2:35 PM 96.6 °F 97.7 °F 62.2 °F 32% 29.81 in 7.0 mi ESE 10.4 mph - N/A   Clear
2:55 PM 97.7 °F 99.0 °F 61.9 °F 31% 29.80 in 10.0 mi ESE 12.7 mph - N/A   Clear
3:15 PM 96.8 °F 98.5 °F 63.0 °F 33% 29.80 in 7.0 mi South 9.2 mph - N/A   Clear
3:35 PM 97.7 °F 99.5 °F 63.0 °F 32% 29.80 in 10.0 mi East 11.5 mph - N/A   Scattered Clouds
3:55 PM 97.7 °F 99.5 °F 63.0 °F 32% 29.79 in 10.0 mi SE 10.4 mph 16.1 mph N/A   Scattered Clouds
4:15 PM 97.5 °F 99.7 °F 64.2 °F 33% 29.79 in 7.0 mi East 15.0 mph 18.4 mph N/A   Clear
4:35 PM 97.9 °F 99.8 °F 63.5 °F 32% 29.79 in 7.0 mi ESE 9.2 mph 18.4 mph N/A   Clear
4:55 PM 97.5 °F 99.7 °F 63.9 °F 33% 29.79 in 7.0 mi East 9.2 mph 21.9 mph N/A   Scattered Clouds
5:15 PM 98.1 °F 100.1 °F 63.3 °F 32% 29.78 in 7.0 mi SE 12.7 mph 16.1 mph N/A   Scattered Clouds
5:35 PM 97.7 °F 99.5 °F 63.0 °F 32% 29.78 in 7.0 mi East 11.5 mph - N/A   Clear
5:55 PM 97.3 °F 99.4 °F 63.9 °F 33% 29.78 in 7.0 mi ESE 13.8 mph 18.4 mph N/A   Clear
6:15 PM 96.8 °F 99.0 °F 63.9 °F 34% 29.78 in 7.0 mi East 10.4 mph 16.1 mph N/A   Clear
6:35 PM 96.4 °F 98.9 °F 64.9 °F 35% 29.77 in 7.0 mi East 10.4 mph - N/A   Clear
6:55 PM 95.5 °F 98.9 °F 66.4 °F 38% 29.78 in 7.0 mi SSE 9.2 mph - N/A   Clear
7:15 PM 95.2 °F 99.9 °F 68.4 °F 41% 29.79 in 7.0 mi East 16.1 mph 24.2 mph N/A   Mostly Cloudy
7:35 PM 92.3 °F 98.6 °F 70.7 °F 49% 29.79 in 7.0 mi ESE 18.4 mph 23.0 mph N/A   Scattered Clouds
7:55 PM 90.9 °F 97.3 °F 70.9 °F 52% 29.80 in 7.0 mi ESE 17.3 mph - N/A   Clear
8:15 PM 89.6 °F 95.7 °F 71.1 °F 54% 29.81 in 7.0 mi ESE 17.3 mph - N/A   Clear
8:35 PM 88.3 °F 94.5 °F 71.6 °F 57% 29.82 in 7.0 mi ESE 15.0 mph - N/A   Clear
8:55 PM 87.3 °F 93.6 °F 71.6 °F 60% 29.83 in 10.0 mi ESE 12.7 mph 17.3 mph N/A   Clear
9:15 PM 86.4 °F 92.2 °F 71.6 °F 61% 29.85 in 10.0 mi ESE 11.5 mph - N/A   Clear
9:35 PM 85.6 °F 91.5 °F 72.0 °F 63% 29.86 in 10.0 mi ESE 13.8 mph - N/A   Clear
9:55 PM 84.7 °F 90.4 °F 71.8 °F 65% 29.88 in 7.0 mi ESE 11.5 mph - N/A   Clear
10:15 PM 84.2 °F 89.9 °F 72.3 °F 67% 29.89 in 10.0 mi ESE 11.5 mph - N/A   Clear
10:35 PM 83.5 °F 89.4 °F 72.7 °F 70% 29.90 in 10.0 mi ESE 10.4 mph - N/A   Clear
10:55 PM 82.9 °F 89.1 °F 73.4 °F 73% 29.91 in 7.0 mi ESE 8.1 mph - N/A   Clear
11:15 PM 82.4 °F 88.2 °F 73.4 °F 74% 29.91 in 10.0 mi ESE 8.1 mph - N/A   Clear
11:35 PM 82.0 °F 87.7 °F 73.6 °F 75% 29.92 in 7.0 mi ESE 6.9 mph - N/A   Clear
11:55 PM 81.5 °F 86.9 °F 73.8 °F 77% 29.93 in 7.0 mi SE 6.9 mph - N/A   Clear